Regional Weather Roundup
Issued by NWS

Home | Current Version | Previous Version | Graphics & Text | Print | Product List | Glossary On
Versions: 1 2 3 4 5 6 7 8 9 10 11 12 13 14 15 16 17 18 19 20 21 22 23 24 25 26 27 28 29 30 31 32 33 34 35 36 37 38 39 40 41 42 43 44 45 46 47 48 49 50
000
ASUS45 KBOU 281407
RWRCO

WEATHER ROUNDUP FOR COLORADO
NATIONAL WEATHER SERVICE DENVER/BOULDER CO
700 AM MST SUN DEC 28 2014

NOTE: "FAIR" INDICATES FEW OR NO CLOUDS BELOW 12000 FEET WITH NO
SIGNIFICANT WEATHER AND/OR OBSTRUCTIONS TO VISIBILITY.

COZ001>005-013-030-031-281500-
...NORTHWEST COLORADO...

CITY           SKY/WX    TMP DP  RH WIND       PRES   REMARKS
CRAIG          CLOUDY    15   6  67 NE6       30.05F WCI   6
HAYDEN         CLOUDY     9   3  78 E10       30.04F WCI  -6
MEEKER         CLOUDY    20   8  60 E6        30.06S WCI  12
MOUNT WERNER   NOT AVBL
STEAMBOAT SPGS CLOUDY     4   0  85 CALM      30.05S
WALDEN         MOCLDY    14   3  62 S17G23    29.91F WCI  -3
$$

COZ006>008-011-281500-
...WEST CENTRAL VALLEYS...

CITY           SKY/WX    TMP DP  RH WIND       PRES   REMARKS
GRAND JUNCTION CLOUDY    19  12  74 SE5       30.18S WCI  12
MONTROSE       CLOUDY    17  10  74 CALM      30.17F
EAGLE          LGT SNOW   9   5  85 CALM      30.13R FOG
RIFLE          FLURRIES  15   7  70 CALM      30.16F
DELTA          CLOUDY    18  11  73 CALM      30.18F
NUCLA          MOCLDY    14   9  79 CALM      30.20R
$$

COZ017>023-064>068-281500-
...SOUTHWEST COLORADO...

CITY           SKY/WX    TMP DP  RH WIND       PRES   REMARKS
DURANGO        PTCLDY     3   0  87 NE6       30.16F WCI  -8
CORTEZ         CLEAR     10   6  84 CALM      30.17F
PAGOSA SPRINGS PTCLDY   N/A N/A N/A CALM      30.12F
TELLURIDE      CLOUDY    15   2  55 E7        30.04F WCI   6
WOLF CREEK PAS PTCLDY     3  -8  60 MISG      29.96F
$$

COZ009-010-012-014-032>034-037-058>063-281500-
...CENTRAL COLORADO...

CITY           SKY/WX    TMP DP  RH WIND       PRES   REMARKS
ASPEN          LGT SNOW   8   3  80 CALM      30.03S
BUENA VISTA    PTCLDY    20   2  45 W15G28    29.94S WCI   6
COPPER MTN     LGT SNOW   9   0  66 W10       29.88S WCI  -6
BERTHOUD PASS  NOT AVBL
COTTONWOOD PAS PTCLDY    19   3  49 W33G51    29.87F WCI   0
GUNNISON       PTCLDY   -15 N/A N/A CALM      30.18R
KREMMLING      LGT SNOW   3  -2  78 CALM      30.06S
LEADVILLE      LGT SNOW  10   2  69 NW6       29.92R WCI   0
MONARCH PASS   MOCLDY     1  -8  66 W43G49    29.98S WCI -27
SALIDA         PTCLDY    11  -1  59 CALM      30.04S
SUNLIGHT       LGT SNOW N/A N/A N/A CALM      29.94F
WILKERSON PASS PTCLDY     7  -8  51 W13G23    29.84F WCI  -9
$$

COZ069>075-281500-
...SAN LUIS VALLEY/SANGRE DE CRISTO MOUNTAINS...

CITY           SKY/WX    TMP DP  RH WIND       PRES   REMARKS
ALAMOSA        CLOUDY    -9 -14  78 CALM      30.10F
LA VETA PASS   NOT AVBL
SAGUACHE       MOCLDY    -4  -9  77 NW17      30.09S WCI -26
$$

COZ035-036-038>040-281500-
...NORTHERN COLORADO FRONT RANGE...

CITY           SKY/WX    TMP DP  RH WIND       PRES   REMARKS
DENVER INTL AP MOCLDY    11   6  81 CALM      29.91S
DMNS CITY PARK   N/A     10   6  87 S2        29.92F
AURORA         MOCLDY    10   3  72 NE5       29.91R WCI   2
FRONT RANGE AP PTCLDY    14   9  79 W6        29.91F WCI   5
ERIE MUNI ARPT   N/A    N/A N/A N/A MISG      29.94F
BOULDER MUN AP PTCLDY    12  10  92 CALM      29.91F
CENTENNIAL     PTCLDY    11   0  61 S6        29.89R WCI   1
BROOMFIELD     PTCLDY    12   7  79 VRB6      29.89F WCI   3
FORT COLLINS   MOCLDY    12   9  85 NE7       29.93S WCI   2
LONGMONT       MOCLDY     6   2  84 CALM      29.95F
$$

COZ041-046-047-076>085-087-088-281500-
...PIKES PEAK/PALMER DIVIDE AND SOUTHERN FOOTHILLS...

CITY           SKY/WX    TMP DP  RH WIND       PRES   REMARKS
COLO. SPRINGS  PTCLDY    14   4  64 NW5       29.89F WCI   6
A. F. ACADEMY  CLEAR     12  -1  55 NE5       29.87F WCI   4
ELLICOTT       NOT AVBL
FALCON         PTCLDY    13   1  57 NW8       29.87F WCI   2
FORT CARSON    PTCLDY    11   5  78 N7        29.89F WCI   0
LIMON          PTCLDY     4   0  83 N7        29.92F WCI  -8
MONUMENT HILL  PTCLDY    18  -2  41 SW8       29.85S WCI   7
TRINIDAD       PTCLDY    13   4  67 W13       29.93F WCI  -2
$$

COZ042>045-048>051-090-091-281500-
...NORTHEAST COLORADO...

CITY           SKY/WX    TMP DP  RH WIND       PRES   REMARKS
GREELEY ARPT   CLOUDY     5  -2  72 S6        29.93F WCI  -6
AKRON          CLOUDY    11   7  84 W9        29.94F WCI  -2
BURLINGTON     PTCLDY     8   3  80 SW7       29.97F WCI  -3
WRAY           CLOUDY     7   2  82 SW3       30.01S
STERLING       CLOUDY     5   1  85 SW3       29.99F
HOLYOKE        CLEAR      5   0  78 W9        30.01R WCI  -9
FORT MORGAN    CLOUDY     5   1  86 W5        29.96S WCI  -4
$$

COZ086-089-092>099-281500-
...SOUTHEAST COLORADO...

CITY           SKY/WX    TMP DP  RH WIND       PRES   REMARKS
PUEBLO         PTCLDY    10   7  87 CALM      29.96F
LA JUNTA       MOCLDY     7   3  84 W6        29.99F WCI  -3
LAMAR          MOCLDY     9   6  88 W5        30.01F WCI   1
SPRINGFIELD      N/A     15   9  76 W3        29.98S
$$


USA.gov is the U.S. government's official web portal to all federal, state and local government web resources and services.